Location: Unspecified
(0.0000°N, 0.0000°E)
Time: 08:43:01
(UTC+00:00)

Vanguard 2 Rocket - Pass Details

Date: 19 December 2018
Orbit: 556 x 3325 km, 32.9° (Epoch: 22 March)

Event Time Altitude Azimuth Distance (km) Brightness Sun altitude
Rises 02:39:05 0° 256° (WSW) 5,367 - -44.2°
Reaches altitude 10° 02:44:05 10° 268° (W) 3,820 - -43.2°
Maximum altitude 02:51:04 24° 317° (NW) 2,160 - -41.7°
Drops below altitude 10° 02:55:50 10° 11° (N) 2,496 - -40.7°
Sets 02:58:21 0° 26° (NNE) 3,179 - -40.1°
